Location: Dammartin
(48.9032°N, 1.6195°E)
Time: 15:24:17
(UTC+00:00)

Cosmos 1140 Rocket - Pass Details

Date: 03 February 2023
Orbit: 743 x 766 km, 74.1° (Epoch: 29 March)

Event Time Altitude Azimuth Distance (km) Brightness Sun altitude
Rises 17:21:44 0° 197° (SSW) 3,198 7.3 -5.1°
Reaches altitude 10° 17:24:05 10° 197° (SSW) 2,274 6.5 -5.5°
Maximum altitude 17:29:14 80° 111° (ESE) 769 3.5 -6.3°
Drops below altitude 10° 17:34:24 10° 25° (NNE) 2,276 5.6 -7.1°
Sets 17:36:46 0° 25° (NNE) 3,202 6.3 -7.4°
